Wetterdaten: Samstag, 29.06.2013
Datum Zeit Temperatur Luftfeuchte Luftdruck Regen Wind Richtung Richtung Taupunkt Windchill Windben
29.06.2013 00:00 5,9 C 96 % 1023,7 hPa 0,0 l/m 0,0 km/h (0 Bft) W-NW 292 5,3 C 5,6 C 0,0 km/h (0 Bft)
29.06.2013 00:05 5,8 C 96 % 1023,5 hPa 0,0 l/m 0,0 km/h (0 Bft) W-SW 247 5,2 C 5,7 C 0,0 km/h (0 Bft)
29.06.2013 00:10 5,8 C 96 % 1023,5 hPa 0,0 l/m 0,0 km/h (0 Bft) SW 225 5,2 C 5,5 C 0,0 km/h (0 Bft)
29.06.2013 00:15 5,8 C 96 % 1023,5 hPa 0,0 l/m 0,0 km/h (0 Bft) W-NW 292 5,2 C 5,5 C 0,0 km/h (0 Bft)
29.06.2013 00:20 5,7 C 96 % 1023,5 hPa 0,0 l/m 0,2 km/h (0 Bft) SO 135 5,1 C 5,7 C 0,0 km/h (0 Bft)
29.06.2013 00:25 5,8 C 96 % 1023,5 hPa 0,0 l/m 0,3 km/h (0 Bft) S-SW 202 5,2 C 5,7 C 0,0 km/h (0 Bft)
29.06.2013 00:30 5,9 C 96 % 1023,5 hPa 0,0 l/m 0,5 km/h (0 Bft) O 90 5,3 C 5,9 C 2,9 km/h (1 Bft)
29.06.2013 00:35 5,9 C 96 % 1023,5 hPa 0,0 l/m 0,5 km/h (0 Bft) W-NW 292 5,3 C 5,9 C 0,0 km/h (0 Bft)
29.06.2013 00:40 5,9 C 96 % 1023,5 hPa 0,0 l/m 0,3 km/h (0 Bft) W 270 5,3 C 5,9 C 3,1 km/h (1 Bft)
29.06.2013 00:45 6,0 C 95 % 1023,1 hPa 0,0 l/m 0,5 km/h (0 Bft) W-SW 247 5,3 C 6,0 C 2,1 km/h (1 Bft)
29.06.2013 00:50 6,0 C 95 % 1023,1 hPa 0,0 l/m 0,5 km/h (0 Bft) S-SW 202 5,3 C 6,0 C 0,0 km/h (0 Bft)
29.06.2013 00:55 6,0 C 95 % 1023,1 hPa 0,0 l/m 0,8 km/h (0 Bft) O 90 5,3 C 5,9 C 0,0 km/h (0 Bft)
29.06.2013 01:00 5,9 C 96 % 1023,1 hPa 0,0 l/m 0,5 km/h (0 Bft) N-NW 337 5,3 C 5,9 C 0,0 km/h (0 Bft)
29.06.2013 01:05 5,9 C 96 % 1023,2 hPa 0,0 l/m 0,5 km/h (0 Bft) O-SO 112 5,3 C 5,9 C 0,0 km/h (0 Bft)
29.06.2013 01:10 6,0 C 95 % 1023,2 hPa 0,0 l/m 0,8 km/h (0 Bft) O-NO 67 5,3 C 5,9 C 3,9 km/h (1 Bft)
29.06.2013 01:15 6,1 C 95 % 1023,2 hPa 0,0 l/m 0,3 km/h (0 Bft) W-SW 247 5,4 C 6,0 C 0,0 km/h (0 Bft)
29.06.2013 01:20 6,1 C 95 % 1023,2 hPa 0,0 l/m 0,3 km/h (0 Bft) W-SW 247 5,4 C 6,1 C 1,9 km/h (1 Bft)
29.06.2013 01:25 6,1 C 95 % 1022,9 hPa 0,0 l/m 0,3 km/h (0 Bft) O-SO 112 5,4 C 6,1 C 1,9 km/h (1 Bft)
29.06.2013 01:30 6,0 C 95 % 1022,9 hPa 0,0 l/m 0,3 km/h (0 Bft) O-SO 112 5,3 C 6,1 C 2,1 km/h (1 Bft)
29.06.2013 01:35 6,0 C 95 % 1022,9 hPa 0,0 l/m 0,3 km/h (0 Bft) W-SW 247 5,3 C 6,1 C 0,0 km/h (0 Bft)
29.06.2013 01:40 5,9 C 96 % 1022,9 hPa 0,0 l/m 0,3 km/h (0 Bft) W-SW 247 5,3 C 6,1 C 2,6 km/h (1 Bft)
29.06.2013 01:45 5,9 C 96 % 1022,9 hPa 0,0 l/m 0,3 km/h (0 Bft) W-NW 292 5,3 C 6,1 C 0,0 km/h (0 Bft)
29.06.2013 01:50 6,0 C 95 % 1022,9 hPa 0,0 l/m 0,5 km/h (0 Bft) O-SO 112 5,3 C 6,2 C 3,2 km/h (1 Bft)
29.06.2013 01:55 6,1 C 96 % 1022,9 hPa 0,0 l/m 0,3 km/h (0 Bft) W-SW 247 5,5 C 6,3 C 0,0 km/h (0 Bft)
29.06.2013 02:00 6,3 C 96 % 1022,9 hPa 0,0 l/m 0,6 km/h (0 Bft) W 270 5,7 C 6,3 C 1,6 km/h (1 Bft)
29.06.2013 02:05 6,3 C 96 % 1022,6 hPa 0,0 l/m 0,6 km/h (0 Bft) W-SW 247 5,7 C 6,3 C 2,4 km/h (1 Bft)
29.06.2013 02:10 6,4 C 96 % 1022,6 hPa 0,0 l/m 1,0 km/h (0 Bft) O-SO 112 5,8 C 6,4 C 6,9 km/h (2 Bft)
29.06.2013 02:15 6,4 C 96 % 1022,6 hPa 0,0 l/m 1,1 km/h (1 Bft) O-NO 67 5,8 C 6,4 C 0,0 km/h (0 Bft)
29.06.2013 02:20 6,3 C 96 % 1022,6 hPa 0,0 l/m 0,5 km/h (0 Bft) W-SW 247 5,7 C 6,3 C 1,6 km/h (1 Bft)
29.06.2013 02:25 6,3 C 96 % 1022,6 hPa 0,0 l/m 0,2 km/h (0 Bft) O-SO 112 5,7 C 6,3 C 0,0 km/h (0 Bft)
29.06.2013 02:30 6,3 C 96 % 1022,6 hPa 0,0 l/m 0,0 km/h (0 Bft) S 180 5,7 C 6,2 C 0,0 km/h (0 Bft)
29.06.2013 02:35 6,3 C 96 % 1022,6 hPa 0,0 l/m 0,0 km/h (0 Bft) S-SW 202 5,7 C 6,2 C 0,0 km/h (0 Bft)
29.06.2013 02:40 6,3 C 96 % 1022,6 hPa 0,0 l/m 0,0 km/h (0 Bft) O 90 5,7 C 6,1 C 0,0 km/h (0 Bft)
29.06.2013 02:45 6,3 C 96 % 1022,4 hPa 0,7 l/m 0,0 km/h (0 Bft) W 270 5,7 C 6,1 C 0,0 km/h (0 Bft)
29.06.2013 02:50 6,3 C 96 % 1022,4 hPa 0,0 l/m 0,0 km/h (0 Bft) W-SW 247 5,7 C 6,1 C 1,8 km/h (1 Bft)
29.06.2013 02:55 6,3 C 96 % 1022,4 hPa 0,0 l/m 0,2 km/h (0 Bft) SW 225 5,7 C 6,1 C 0,0 km/h (0 Bft)
29.06.2013 03:00 6,2 C 96 % 1022,4 hPa 0,0 l/m 0,2 km/h (0 Bft) S-SW 202 5,6 C 6,1 C 1,9 km/h (1 Bft)
29.06.2013 03:05 6,2 C 96 % 1022,4 hPa 0,0 l/m 0,2 km/h (0 Bft) NO 45 5,6 C 6,1 C 0,0 km/h (0 Bft)
29.06.2013 03:10 6,3 C 96 % 1022,4 hPa 0,0 l/m 0,2 km/h (0 Bft) O-NO 67 5,7 C 6,0 C 0,0 km/h (0 Bft)
29.06.2013 03:15 6,2 C 96 % 1022,4 hPa 0,0 l/m 0,0 km/h (0 Bft) NO 45 5,6 C 6,0 C 0,0 km/h (0 Bft)
29.06.2013 03:20 6,3 C 96 % 1022,4 hPa 0,0 l/m 0,0 km/h (0 Bft) NO 45 5,7 C 6,0 C 0,0 km/h (0 Bft)
29.06.2013 03:25 6,3 C 96 % 1022,2 hPa 0,0 l/m 0,0 km/h (0 Bft) W 270 5,7 C 6,1 C 0,0 km/h (0 Bft)
29.06.2013 03:30 6,4 C 96 % 1022,2 hPa 0,0 l/m 0,2 km/h (0 Bft) W-SW 247 5,8 C 6,2 C 1,9 km/h (1 Bft)
29.06.2013 03:35 6,5 C 96 % 1022,2 hPa 0,0 l/m 0,3 km/h (0 Bft) O-NO 67 5,9 C 6,3 C 0,0 km/h (0 Bft)
29.06.2013 03:40 6,5 C 96 % 1022,2 hPa 0,0 l/m 0,5 km/h (0 Bft) W 270 5,9 C 6,3 C 3,7 km/h (1 Bft)
29.06.2013 03:45 6,5 C 96 % 1022,2 hPa 0,0 l/m 0,3 km/h (0 Bft) W-SW 247 5,9 C 6,3 C 0,0 km/h (0 Bft)
29.06.2013 03:50 6,6 C 96 % 1022,2 hPa 0,0 l/m 0,3 km/h (0 Bft) S 180 6,0 C 6,4 C 1,8 km/h (1 Bft)
29.06.2013 03:55 6,5 C 96 % 1022,2 hPa 0,0 l/m 0,3 km/h (0 Bft) NO 45 5,9 C 6,3 C 0,0 km/h (0 Bft)
29.06.2013 04:00 6,5 C 96 % 1022,2 hPa 0,0 l/m 0,5 km/h (0 Bft) W-SW 247 5,9 C 6,3 C 0,0 km/h (0 Bft)
29.06.2013 04:05 6,6 C 96 % 1021,9 hPa 0,0 l/m 0,3 km/h (0 Bft) W-SW 247 6,0 C 6,3 C 2,6 km/h (1 Bft)
29.06.2013 04:10 6,6 C 96 % 1021,9 hPa 0,0 l/m 0,8 km/h (0 Bft) N-NO 22 6,0 C 6,4 C 3,2 km/h (1 Bft)
29.06.2013 04:15 6,6 C 96 % 1021,9 hPa 0,0 l/m 1,0 km/h (0 Bft) NO 45 6,0 C 6,5 C 3,4 km/h (1 Bft)
29.06.2013 04:20 6,8 C 96 % 1021,9 hPa 0,0 l/m 0,6 km/h (0 Bft) W 270 6,2 C 6,6 C 0,0 km/h (0 Bft)
29.06.2013 04:25 6,9 C 96 % 1021,9 hPa 0,0 l/m 0,8 km/h (0 Bft) O-SO 112 6,3 C 6,6 C 0,0 km/h (0 Bft)
29.06.2013 04:30 6,9 C 96 % 1021,9 hPa 0,0 l/m 0,8 km/h (0 Bft) O 90 6,3 C 6,7 C 2,3 km/h (1 Bft)
29.06.2013 04:35 6,9 C 96 % 1021,9 hPa 0,0 l/m 1,1 km/h (1 Bft) W-SW 247 6,3 C 6,8 C 3,1 km/h (1 Bft)
29.06.2013 04:40 6,9 C 96 % 1021,9 hPa 0,0 l/m 1,0 km/h (0 Bft) S 180 6,3 C 6,8 C 0,0 km/h (0 Bft)
29.06.2013 04:45 6,9 C 96 % 1021,9 hPa 0,0 l/m 0,6 km/h (0 Bft) W-SW 247 6,3 C 6,8 C 1,6 km/h (1 Bft)
29.06.2013 04:50 6,9 C 96 % 1021,9 hPa 0,0 l/m 0,8 km/h (0 Bft) W-SW 247 6,3 C 6,8 C 0,0 km/h (0 Bft)
29.06.2013 04:55 6,9 C 96 % 1021,9 hPa 0,0 l/m 0,8 km/h (0 Bft) S 180 6,3 C 6,8 C 3,2 km/h (1 Bft)
29.06.2013 05:00 6,8 C 96 % 1021,9 hPa 0,0 l/m 0,6 km/h (0 Bft) S-SW 202 6,2 C 6,7 C 3,1 km/h (1 Bft)
29.06.2013 05:05 6,7 C 96 % 1021,8 hPa 0,0 l/m 0,8 km/h (0 Bft) S-SW 202 6,1 C 6,6 C 0,0 km/h (0 Bft)
29.06.2013 05:10 6,6 C 96 % 1021,8 hPa 0,0 l/m 0,6 km/h (0 Bft) NO 45 6,0 C 6,5 C 0,0 km/h (0 Bft)
29.06.2013 05:15 6,5 C 96 % 1021,8 hPa 0,0 l/m 0,0 km/h (0 Bft) NO 45 5,9 C 6,3 C 0,0 km/h (0 Bft)
29.06.2013 05:20 6,3 C 96 % 1021,8 hPa 0,0 l/m 0,0 km/h (0 Bft) NO 45 5,7 C 6,2 C 0,0 km/h (0 Bft)
29.06.2013 05:25 6,4 C 96 % 1021,8 hPa 0,0 l/m 0,3 km/h (0 Bft) O-SO 112 5,8 C 6,2 C 2,1 km/h (1 Bft)
29.06.2013 05:30 6,7 C 96 % 1021,8 hPa 0,0 l/m 1,1 km/h (1 Bft) O-NO 67 6,1 C 6,3 C 2,6 km/h (1 Bft)
29.06.2013 05:35 6,9 C 96 % 1021,8 hPa 0,0 l/m 1,9 km/h (1 Bft) O 90 6,3 C 6,5 C 3,7 km/h (1 Bft)
29.06.2013 05:40 7,0 C 96 % 1021,8 hPa 0,0 l/m 2,1 km/h (1 Bft) O 90 6,4 C 6,7 C 0,0 km/h (0 Bft)
29.06.2013 05:45 7,0 C 96 % 1021,9 hPa 0,0 l/m 1,9 km/h (1 Bft) O-NO 67 6,4 C 6,8 C 2,4 km/h (1 Bft)
29.06.2013 05:50 7,1 C 96 % 1021,9 hPa 0,0 l/m 1,8 km/h (1 Bft) O 90 6,5 C 6,8 C 0,0 km/h (0 Bft)
29.06.2013 05:55 7,1 C 96 % 1021,9 hPa 0,0 l/m 1,8 km/h (1 Bft) NO 45 6,5 C 6,8 C 2,3 km/h (1 Bft)
29.06.2013 06:00 7,1 C 95 % 1021,9 hPa 0,0 l/m 1,6 km/h (1 Bft) O 90 6,4 C 6,8 C 3,9 km/h (1 Bft)
29.06.2013 06:05 7,1 C 95 % 1021,8 hPa 0,0 l/m 1,6 km/h (1 Bft) NO 45 6,4 C 6,9 C 2,4 km/h (1 Bft)
29.06.2013 06:10 7,2 C 95 % 1021,8 hPa 0,0 l/m 2,1 km/h (1 Bft) N 360 6,5 C 7,1 C 2,9 km/h (1 Bft)
29.06.2013 06:15 7,2 C 95 % 1021,8 hPa 0,0 l/m 1,6 km/h (1 Bft) SO 135 6,5 C 7,2 C 0,0 km/h (0 Bft)
29.06.2013 06:20 7,4 C 95 % 1021,8 hPa 0,0 l/m 1,4 km/h (1 Bft) N-NO 22 6,7 C 7,3 C 2,1 km/h (1 Bft)
29.06.2013 06:25 7,5 C 95 % 1021,7 hPa 0,0 l/m 1,3 km/h (1 Bft) SO 135 6,8 C 7,5 C 0,0 km/h (0 Bft)
29.06.2013 06:30 7,5 C 95 % 1021,7 hPa 0,0 l/m 0,3 km/h (0 Bft) O-NO 67 6,8 C 7,5 C 1,8 km/h (1 Bft)
29.06.2013 06:35 7,5 C 94 % 1021,7 hPa 0,0 l/m 0,5 km/h (0 Bft) O-SO 112 6,6 C 7,6 C 0,0 km/h (0 Bft)
29.06.2013 06:40 7,6 C 94 % 1021,7 hPa 0,0 l/m 1,3 km/h (1 Bft) O-NO 67 6,7 C 7,7 C 2,9 km/h (1 Bft)
29.06.2013 06:45 7,7 C 94 % 1021,8 hPa 0,0 l/m 1,3 km/h (1 Bft) N 360 6,8 C 7,7 C 2,4 km/h (1 Bft)
29.06.2013 06:50 8,0 C 94 % 1021,8 hPa 0,0 l/m 1,4 km/h (1 Bft) O 90 7,1 C 8,1 C 2,1 km/h (1 Bft)
29.06.2013 06:55 8,4 C 94 % 1021,8 hPa 0,0 l/m 1,3 km/h (1 Bft) W-NW 292 7,5 C 8,4 C 0,0 km/h (0 Bft)
29.06.2013 07:00 9,0 C 93 % 1021,8 hPa 0,0 l/m 1,1 km/h (1 Bft) O-NO 67 7,9 C 9,0 C 0,0 km/h (0 Bft)
29.06.2013 07:05 9,4 C 92 % 1021,8 hPa 0,0 l/m 0,5 km/h (0 Bft) NO 45 8,2 C 9,6 C 0,0 km/h (0 Bft)
29.06.2013 07:10 9,6 C 92 % 1021,8 hPa 0,0 l/m 0,0 km/h (0 Bft) NO 45 8,4 C 10,1 C 1,8 km/h (1 Bft)
29.06.2013 07:15 10,0 C 91 % 1021,8 hPa 0,0 l/m 0,2 km/h (0 Bft) S 180 8,6 C 10,3 C 0,0 km/h (0 Bft)
29.06.2013 07:20 10,2 C 91 % 1021,8 hPa 0,0 l/m 1,4 km/h (1 Bft) S 180 8,8 C 10,8 C 4,0 km/h (1 Bft)
29.06.2013 07:25 10,5 C 91 % 1021,6 hPa 0,0 l/m 1,9 km/h (1 Bft) S-SO 157 9,1 C 10,9 C 5,3 km/h (1 Bft)
29.06.2013 07:30 10,7 C 91 % 1021,6 hPa 0,0 l/m 1,8 km/h (1 Bft) S-SO 157 9,3 C 11,2 C 3,9 km/h (1 Bft)
29.06.2013 07:35 11,0 C 90 % 1021,6 hPa 0,0 l/m 1,9 km/h (1 Bft) S-SO 157 9,4 C 11,4 C 5,0 km/h (1 Bft)
29.06.2013 07:40 11,2 C 87 % 1021,6 hPa 0,0 l/m 1,6 km/h (1 Bft) S-SO 157 9,1 C 11,8 C 0,0 km/h (0 Bft)
29.06.2013 07:45 11,9 C 86 % 1021,8 hPa 0,0 l/m 1,6 km/h (1 Bft) S 180 9,6 C 12,3 C 5,3 km/h (1 Bft)
29.06.2013 07:50 12,1 C 86 % 1021,8 hPa 0,0 l/m 1,3 km/h (1 Bft) O-NO 67 9,8 C 13,0 C 0,0 km/h (0 Bft)
29.06.2013 07:55 12,0 C 85 % 1021,8 hPa 0,0 l/m 0,8 km/h (0 Bft) N 360 9,6 C 13,3 C 0,0 km/h (0 Bft)
29.06.2013 08:00 11,9 C 86 % 1021,8 hPa 0,0 l/m 0,3 km/h (0 Bft) S 180 9,6 C 13,5 C 1,9 km/h (1 Bft)
29.06.2013 08:05 11,8 C 86 % 1021,9 hPa 0,0 l/m 1,1 km/h (1 Bft) O-NO 67 9,5 C 13,2 C 1,6 km/h (1 Bft)
29.06.2013 08:10 11,2 C 86 % 1021,9 hPa 0,0 l/m 1,3 km/h (1 Bft) NO 45 8,9 C 12,8 C 3,4 km/h (1 Bft)
29.06.2013 08:15 10,9 C 87 % 1021,9 hPa 0,0 l/m 0,5 km/h (0 Bft) W 270 8,8 C 12,5 C 1,6 km/h (1 Bft)
29.06.2013 08:20 11,0 C 88 % 1021,9 hPa 0,0 l/m 0,3 km/h (0 Bft) W-SW 247 9,1 C 12,1 C 0,0 km/h (0 Bft)
29.06.2013 08:25 10,9 C 88 % 1021,6 hPa 0,0 l/m 0,5 km/h (0 Bft) NO 45 9,0 C 12,0 C 3,9 km/h (1 Bft)
29.06.2013 08:30 11,0 C 88 % 1021,6 hPa 0,0 l/m 1,0 km/h (0 Bft) O 90 9,1 C 11,9 C 3,5 km/h (1 Bft)
29.06.2013 08:35 11,0 C 88 % 1021,6 hPa 0,0 l/m 1,0 km/h (0 Bft) S-SW 202 9,1 C 11,8 C 0,0 km/h (0 Bft)
29.06.2013 08:40 11,2 C 89 % 1021,6 hPa 0,0 l/m 0,3 km/h (0 Bft) O-NO 67 9,5 C 11,9 C 0,0 km/h (0 Bft)
29.06.2013 08:45 11,2 C 88 % 1021,6 hPa 0,0 l/m 0,2 km/h (0 Bft) S 180 9,3 C 12,1 C 2,9 km/h (1 Bft)
29.06.2013 08:50 11,5 C 88 % 1021,6 hPa 0,0 l/m 0,6 km/h (0 Bft) NO 45 9,6 C 12,3 C 0,0 km/h (0 Bft)
29.06.2013 08:55 11,5 C 88 % 1021,6 hPa 0,0 l/m 0,8 km/h (0 Bft) SO 135 9,6 C 12,4 C 2,1 km/h (1 Bft)
29.06.2013 09:00 11,7 C 88 % 1021,6 hPa 0,0 l/m 0,6 km/h (0 Bft) SO 135 9,8 C 12,4 C 1,8 km/h (1 Bft)
29.06.2013 09:05 11,7 C 88 % 1021,6 hPa 0,0 l/m 0,8 km/h (0 Bft) SO 135 9,8 C 12,4 C 0,0 km/h (0 Bft)
29.06.2013 09:10 11,6 C 87 % 1021,6 hPa 0,0 l/m 2,1 km/h (1 Bft) O-SO 112 9,5 C 12,2 C 8,4 km/h (2 Bft)
29.06.2013 09:15 11,5 C 86 % 1021,6 hPa 0,0 l/m 4,2 km/h (1 Bft) S-SO 157 9,2 C 12,0 C 7,9 km/h (2 Bft)
29.06.2013 09:20 11,4 C 83 % 1021,6 hPa 0,0 l/m 6,0 km/h (2 Bft) S-SW 202 8,6 C 11,2 C 12,2 km/h (2 Bft)
29.06.2013 09:25 11,2 C 83 % 1021,9 hPa 0,0 l/m 5,8 km/h (2 Bft) S-SW 202 8,4 C 10,9 C 9,0 km/h (2 Bft)
29.06.2013 09:30 11,1 C 83 % 1021,9 hPa 0,0 l/m 6,3 km/h (2 Bft) S-SW 202 8,3 C 10,3 C 13,5 km/h (3 Bft)
29.06.2013 09:35 11,1 C 84 % 1021,9 hPa 0,0 l/m 6,6 km/h (2 Bft) S 180 8,5 C 10,0 C 9,2 km/h (2 Bft)
29.06.2013 09:40 11,1 C 85 % 1021,9 hPa 0,0 l/m 5,6 km/h (1 Bft) SO 135 8,7 C 10,3 C 5,8 km/h (2 Bft)
29.06.2013 09:45 11,1 C 86 % 1021,9 hPa 0,0 l/m 4,7 km/h (1 Bft) S-SO 157 8,8 C 10,4 C 4,3 km/h (1 Bft)
29.06.2013 09:50 11,1 C 86 % 1021,9 hPa 0,0 l/m 4,3 km/h (1 Bft) N-NO 22 8,8 C 10,4 C 4,5 km/h (1 Bft)
29.06.2013 09:55 11,1 C 86 % 1021,9 hPa 0,0 l/m 4,3 km/h (1 Bft) S-SO 157 8,8 C 10,5 C 3,4 km/h (1 Bft)
29.06.2013 10:00 11,3 C 87 % 1021,9 hPa 0,0 l/m 3,7 km/h (1 Bft) S-SO 157 9,2 C 10,5 C 6,8 km/h (2 Bft)
29.06.2013 10:05 11,2 C 88 % 1022,1 hPa 0,0 l/m 3,5 km/h (1 Bft) SO 135 9,3 C 10,5 C 7,7 km/h (2 Bft)
29.06.2013 10:10 11,2 C 88 % 1022,1 hPa 0,0 l/m 3,1 km/h (1 Bft) S-SW 202 9,3 C 10,4 C 4,5 km/h (1 Bft)
29.06.2013 10:15 11,2 C 88 % 1022,1 hPa 0,0 l/m 2,9 km/h (1 Bft) S 180 9,3 C 10,4 C 2,3 km/h (1 Bft)
29.06.2013 10:20 11,2 C 89 % 1022,1 hPa 0,0 l/m 2,3 km/h (1 Bft) S-SO 157 9,5 C 10,5 C 0,0 km/h (0 Bft)
29.06.2013 10:25 11,3 C 89 % 1021,8 hPa 0,0 l/m 1,3 km/h (1 Bft) SO 135 9,6 C 10,6 C 0,0 km/h (0 Bft)
29.06.2013 10:30 11,3 C 89 % 1021,8 hPa 0,0 l/m 0,3 km/h (0 Bft) S 180 9,6 C 10,7 C 0,0 km/h (0 Bft)
29.06.2013 10:35 11,7 C 90 % 1021,8 hPa 0,0 l/m 0,2 km/h (0 Bft) S-SW 202 10,1 C 11,0 C 1,9 km/h (1 Bft)
29.06.2013 10:40 12,0 C 90 % 1021,8 hPa 0,0 l/m 0,2 km/h (0 Bft) W-SW 247 10,4 C 11,3 C 0,0 km/h (0 Bft)
29.06.2013 10:45 11,8 C 90 % 1022,1 hPa 0,0 l/m 0,2 km/h (0 Bft) W-SW 247 10,2 C 11,6 C 0,0 km/h (0 Bft)
29.06.2013 10:50 11,8 C 90 % 1022,1 hPa 0,0 l/m 0,3 km/h (0 Bft) S 180 10,2 C 11,7 C 0,0 km/h (0 Bft)
29.06.2013 10:55 11,6 C 90 % 1022,1 hPa 0,0 l/m 0,3 km/h (0 Bft) S 180 10,0 C 11,7 C 3,1 km/h (1 Bft)
29.06.2013 11:00 11,8 C 90 % 1022,1 hPa 0,0 l/m 1,3 km/h (1 Bft) S-SO 157 10,2 C 11,6 C 2,1 km/h (1 Bft)
29.06.2013 11:05 11,8 C 90 % 1022,2 hPa 0,0 l/m 1,6 km/h (1 Bft) S-SO 157 10,2 C 11,6 C 0,0 km/h (0 Bft)
29.06.2013 11:10 12,3 C 90 % 1022,2 hPa 0,0 l/m 1,3 km/h (1 Bft) O 90 10,7 C 12,0 C 0,0 km/h (0 Bft)
29.06.2013 11:15 12,9 C 90 % 1022,2 hPa 0,0 l/m 1,6 km/h (1 Bft) SO 135 11,3 C 12,3 C 2,6 km/h (1 Bft)
29.06.2013 11:20 13,2 C 88 % 1022,2 hPa 0,0 l/m 2,6 km/h (1 Bft) S 180 11,3 C 12,7 C 3,9 km/h (1 Bft)
29.06.2013 11:25 13,5 C 87 % 1022,6 hPa 0,0 l/m 3,2 km/h (1 Bft) S-SW 202 11,4 C 12,9 C 4,0 km/h (1 Bft)
29.06.2013 11:30 13,3 C 86 % 1022,6 hPa 0,0 l/m 2,6 km/h (1 Bft) W-NW 292 11,0 C 13,1 C 3,4 km/h (1 Bft)
29.06.2013 11:35 12,8 C 87 % 1022,6 hPa 0,0 l/m 1,8 km/h (1 Bft) W 270 10,7 C 12,7 C 2,9 km/h (1 Bft)
29.06.2013 11:40 12,3 C 87 % 1022,6 hPa 0,0 l/m 1,3 km/h (1 Bft) NW 315 10,2 C 12,6 C 0,0 km/h (0 Bft)
29.06.2013 11:45 12,0 C 88 % 1021,9 hPa 0,0 l/m 0,6 km/h (0 Bft) W-SW 247 10,1 C 12,5 C 0,0 km/h (0 Bft)
29.06.2013 11:50 11,7 C 89 % 1021,9 hPa 0,7 l/m 0,0 km/h (0 Bft) W-SW 247 9,9 C 12,3 C 0,0 km/h (0 Bft)
29.06.2013 11:55 11,4 C 89 % 1021,9 hPa 0,0 l/m 0,2 km/h (0 Bft) N-NW 337 9,7 C 12,3 C 1,6 km/h (1 Bft)
29.06.2013 12:00 11,9 C 89 % 1021,9 hPa 0,0 l/m 0,5 km/h (0 Bft) W-NW 292 10,1 C 12,2 C 2,3 km/h (1 Bft)
29.06.2013 12:05 12,3 C 89 % 1021,8 hPa 0,0 l/m 0,5 km/h (0 Bft) S-SW 202 10,5 C 12,5 C 2,7 km/h (1 Bft)
29.06.2013 12:10 12,5 C 89 % 1021,8 hPa 0,0 l/m 0,6 km/h (0 Bft) S-SO 157 10,7 C 12,8 C 1,6 km/h (1 Bft)
29.06.2013 12:15 12,1 C 88 % 1021,8 hPa 0,0 l/m 1,0 km/h (0 Bft) W-NW 292 10,2 C 13,0 C 0,0 km/h (0 Bft)
29.06.2013 12:20 12,0 C 87 % 1021,8 hPa 0,0 l/m 1,0 km/h (0 Bft) W-SW 247 9,9 C 12,7 C 1,8 km/h (1 Bft)
29.06.2013 12:25 12,2 C 88 % 1021,7 hPa 0,0 l/m 1,1 km/h (1 Bft) W 270 10,3 C 12,5 C 2,1 km/h (1 Bft)
29.06.2013 12:30 11,8 C 88 % 1021,7 hPa 0,0 l/m 1,1 km/h (1 Bft) O 90 9,9 C 12,3 C 0,0 km/h (0 Bft)
29.06.2013 12:35 11,6 C 88 % 1021,7 hPa 0,0 l/m 0,8 km/h (0 Bft) N-NW 337 9,7 C 12,0 C 0,0 km/h (0 Bft)
29.06.2013 12:40 12,1 C 89 % 1021,7 hPa 0,7 l/m 0,6 km/h (0 Bft) SW 225 10,3 C 12,0 C 2,7 km/h (1 Bft)
29.06.2013 12:45 12,1 C 89 % 1021,6 hPa 0,0 l/m 0,8 km/h (0 Bft) W-NW 292 10,3 C 12,0 C 0,0 km/h (0 Bft)
29.06.2013 12:50 12,0 C 89 % 1021,6 hPa 0,0 l/m 0,8 km/h (0 Bft) O 90 10,2 C 12,2 C 1,6 km/h (1 Bft)
29.06.2013 12:55 12,0 C 89 % 1021,6 hPa 0,0 l/m 0,3 km/h (0 Bft) NO 45 10,2 C 12,3 C 0,0 km/h (0 Bft)
29.06.2013 13:00 12,3 C 89 % 1021,6 hPa 0,0 l/m 0,3 km/h (0 Bft) W-NW 292 10,5 C 12,4 C 1,8 km/h (1 Bft)
29.06.2013 13:05 12,1 C 89 % 1021,5 hPa 0,0 l/m 0,5 km/h (0 Bft) S-SW 202 10,3 C 12,5 C 2,6 km/h (1 Bft)
29.06.2013 13:10 12,3 C 89 % 1021,5 hPa 0,0 l/m 1,0 km/h (0 Bft) W-NW 292 10,5 C 12,5 C 0,0 km/h (0 Bft)
29.06.2013 13:15 12,4 C 89 % 1021,5 hPa 0,0 l/m 1,4 km/h (1 Bft) S-SO 157 10,6 C 12,4 C 3,9 km/h (1 Bft)
29.06.2013 13:20 12,1 C 89 % 1021,5 hPa 0,0 l/m 0,8 km/h (0 Bft) W-NW 292 10,3 C 12,3 C 0,0 km/h (0 Bft)
29.06.2013 13:25 11,8 C 90 % 1021,2 hPa 0,0 l/m 0,6 km/h (0 Bft) O 90 10,2 C 12,3 C 2,7 km/h (1 Bft)
29.06.2013 13:30 11,5 C 90 % 1021,2 hPa 0,7 l/m 0,6 km/h (0 Bft) N 360 9,9 C 11,8 C 0,0 km/h (0 Bft)
29.06.2013 13:35 11,5 C 91 % 1021,2 hPa 0,0 l/m 1,0 km/h (0 Bft) O-SO 112 10,1 C 11,8 C 3,9 km/h (1 Bft)
29.06.2013 13:40 11,7 C 91 % 1021,2 hPa 0,0 l/m 1,0 km/h (0 Bft) NO 45 10,3 C 11,8 C 0,0 km/h (0 Bft)
29.06.2013 13:45 11,5 C 91 % 1021,0 hPa 0,0 l/m 1,3 km/h (1 Bft) S-SO 157 10,1 C 12,1 C 1,9 km/h (1 Bft)
29.06.2013 13:50 11,7 C 91 % 1021,0 hPa 0,0 l/m 1,6 km/h (1 Bft) O-NO 67 10,3 C 12,5 C 2,3 km/h (1 Bft)
29.06.2013 13:55 11,6 C 91 % 1021,0 hPa 0,0 l/m 1,8 km/h (1 Bft) S-SO 157 10,2 C 12,5 C 0,0 km/h (0 Bft)
29.06.2013 14:00 11,4 C 91 % 1021,0 hPa 0,0 l/m 0,6 km/h (0 Bft) W 270 10,0 C 12,4 C 0,0 km/h (0 Bft)
29.06.2013 14:05 11,3 C 91 % 1020,8 hPa 0,0 l/m 0,3 km/h (0 Bft) O-NO 67 9,9 C 12,2 C 3,1 km/h (1 Bft)
29.06.2013 14:10 11,1 C 91 % 1020,8 hPa 0,0 l/m 0,5 km/h (0 Bft) NO 45 9,7 C 11,7 C 0,0 km/h (0 Bft)
29.06.2013 14:15 11,1 C 92 % 1020,8 hPa 0,7 l/m 0,3 km/h (0 Bft) N 360 9,8 C 11,6 C 0,0 km/h (0 Bft)
29.06.2013 14:20 11,1 C 92 % 1020,8 hPa 0,0 l/m 0,3 km/h (0 Bft) O 90 9,8 C 11,6 C 0,0 km/h (0 Bft)
29.06.2013 14:25 11,2 C 92 % 1020,5 hPa 0,0 l/m 0,3 km/h (0 Bft) O-SO 112 9,9 C 11,5 C 0,0 km/h (0 Bft)
29.06.2013 14:30 11,7 C 92 % 1020,5 hPa 0,0 l/m 0,5 km/h (0 Bft) S 180 10,4 C 11,6 C 2,7 km/h (1 Bft)
29.06.2013 14:35 12,1 C 92 % 1020,5 hPa 0,0 l/m 1,1 km/h (1 Bft) S-SO 157 10,8 C 11,7 C 3,7 km/h (1 Bft)
29.06.2013 14:40 12,0 C 92 % 1020,5 hPa 0,0 l/m 3,5 km/h (1 Bft) SO 135 10,7 C 12,0 C 4,8 km/h (1 Bft)
29.06.2013 14:45 12,0 C 92 % 1021,2 hPa 0,0 l/m 4,7 km/h (1 Bft) S-SW 202 10,7 C 12,0 C 5,3 km/h (1 Bft)
29.06.2013 14:50 12,4 C 92 % 1021,2 hPa 0,0 l/m 3,9 km/h (1 Bft) W-SW 247 11,1 C 12,5 C 4,0 km/h (1 Bft)
29.06.2013 14:55 12,7 C 91 % 1021,2 hPa 0,0 l/m 3,1 km/h (1 Bft) W-SW 247 11,3 C 12,7 C 2,1 km/h (1 Bft)
29.06.2013 15:00 12,4 C 91 % 1021,2 hPa 0,0 l/m 3,5 km/h (1 Bft) S 180 11,0 C 13,0 C 4,8 km/h (1 Bft)
29.06.2013 15:05 12,6 C 91 % 1021,1 hPa 0,0 l/m 3,5 km/h (1 Bft) S-SO 157 11,2 C 12,8 C 4,7 km/h (1 Bft)
29.06.2013 15:10 13,0 C 89 % 1021,1 hPa 0,0 l/m 4,7 km/h (1 Bft) S 180 11,2 C 13,1 C 10,9 km/h (2 Bft)
29.06.2013 15:15 13,3 C 88 % 1021,1 hPa 0,0 l/m 6,0 km/h (2 Bft) S-SO 157 11,4 C 13,3 C 12,7 km/h (3 Bft)
29.06.2013 15:20 13,6 C 88 % 1021,1 hPa 0,0 l/m 6,4 km/h (2 Bft) S 180 11,6 C 13,6 C 16,4 km/h (3 Bft)
29.06.2013 15:25 13,0 C 87 % 1021,2 hPa 0,0 l/m 6,8 km/h (2 Bft) S-SW 202 10,9 C 13,1 C 4,3 km/h (1 Bft)
29.06.2013 15:30 12,6 C 87 % 1021,2 hPa 0,0 l/m 8,7 km/h (2 Bft) S 180 10,5 C 10,7 C 19,0 km/h (3 Bft)
29.06.2013 15:35 12,4 C 87 % 1021,2 hPa 0,0 l/m 8,7 km/h (2 Bft) S 180 10,3 C 10,4 C 10,9 km/h (2 Bft)
29.06.2013 15:40 12,4 C 88 % 1021,2 hPa 0,0 l/m 7,4 km/h (2 Bft) S 180 10,5 C 11,1 C 6,8 km/h (2 Bft)
29.06.2013 15:45 12,1 C 88 % 1021,1 hPa 0,0 l/m 7,1 km/h (2 Bft) SO 135 10,2 C 11,2 C 5,8 km/h (2 Bft)
29.06.2013 15:50 12,0 C 89 % 1021,1 hPa 0,0 l/m 6,6 km/h (2 Bft) S 180 10,2 C 11,4 C 7,1 km/h (2 Bft)
29.06.2013 15:55 12,1 C 89 % 1021,1 hPa 0,0 l/m 6,0 km/h (2 Bft) S 180 10,3 C 11,5 C 6,3 km/h (2 Bft)
29.06.2013 16:00 12,4 C 89 % 1021,1 hPa 0,0 l/m 5,5 km/h (1 Bft) W-SW 247 10,6 C 12,0 C 5,5 km/h (1 Bft)
29.06.2013 16:05 12,4 C 89 % 1020,9 hPa 0,0 l/m 6,3 km/h (2 Bft) S-SO 157 10,6 C 12,0 C 9,8 km/h (2 Bft)
29.06.2013 16:10 12,5 C 89 % 1020,9 hPa 0,0 l/m 7,1 km/h (2 Bft) S 180 10,7 C 11,3 C 4,7 km/h (1 Bft)
29.06.2013 16:15 12,3 C 88 % 1020,9 hPa 0,0 l/m 8,0 km/h (2 Bft) S-SO 157 10,4 C 10,6 C 10,1 km/h (2 Bft)
29.06.2013 16:20 12,2 C 88 % 1020,9 hPa 0,0 l/m 8,0 km/h (2 Bft) S-SO 157 10,3 C 10,6 C 9,0 km/h (2 Bft)
29.06.2013 16:25 12,4 C 89 % 1020,8 hPa 0,0 l/m 7,1 km/h (2 Bft) S 180 10,6 C 11,3 C 4,3 km/h (1 Bft)
29.06.2013 16:30 12,8 C 89 % 1020,8 hPa 0,0 l/m 6,1 km/h (2 Bft) S-SO 157 11,0 C 12,7 C 7,2 km/h (2 Bft)
29.06.2013 16:35 12,6 C 88 % 1020,8 hPa 0,0 l/m 6,6 km/h (2 Bft) S-SW 202 10,7 C 12,7 C 8,0 km/h (2 Bft)
29.06.2013 16:40 12,7 C 88 % 1020,8 hPa 0,0 l/m 6,3 km/h (2 Bft) S 180 10,8 C 12,8 C 6,4 km/h (2 Bft)
29.06.2013 16:45 12,8 C 88 % 1021,2 hPa 0,0 l/m 6,3 km/h (2 Bft) S 180 10,9 C 13,1 C 6,6 km/h (2 Bft)
29.06.2013 16:50 12,7 C 88 % 1021,2 hPa 0,0 l/m 6,4 km/h (2 Bft) S 180 10,8 C 13,1 C 9,8 km/h (2 Bft)
29.06.2013 16:55 12,7 C 88 % 1021,2 hPa 0,0 l/m 6,1 km/h (2 Bft) S 180 10,8 C 13,0 C 7,6 km/h (2 Bft)
29.06.2013 17:00 12,4 C 88 % 1021,2 hPa 0,0 l/m 6,1 km/h (2 Bft) S 180 10,5 C 12,6 C 4,5 km/h (1 Bft)
29.06.2013 17:05 12,4 C 88 % 1020,9 hPa 0,0 l/m 6,0 km/h (2 Bft) S 180 10,5 C 12,4 C 6,9 km/h (2 Bft)
29.06.2013 17:10 12,3 C 88 % 1020,9 hPa 0,0 l/m 6,1 km/h (2 Bft) NW 315 10,4 C 12,1 C 7,4 km/h (2 Bft)
29.06.2013 17:15 12,3 C 88 % 1020,9 hPa 0,0 l/m 7,1 km/h (2 Bft) SO 135 10,4 C 11,0 C 8,2 km/h (2 Bft)
29.06.2013 17:20 12,1 C 89 % 1020,9 hPa 0,0 l/m 7,4 km/h (2 Bft) S 180 10,3 C 10,5 C 8,4 km/h (2 Bft)
29.06.2013 17:25 12,1 C 89 % 1021,1 hPa 0,0 l/m 6,6 km/h (2 Bft) S-SO 157 10,3 C 11,2 C 6,4 km/h (2 Bft)
29.06.2013 17:30 11,9 C 90 % 1021,1 hPa 0,7 l/m 5,6 km/h (1 Bft) S-SO 157 10,3 C 11,5 C 5,0 km/h (1 Bft)
29.06.2013 17:35 11,9 C 91 % 1021,1 hPa 0,0 l/m 5,1 km/h (1 Bft) SO 135 10,5 C 11,6 C 5,1 km/h (1 Bft)
29.06.2013 17:40 12,0 C 91 % 1021,1 hPa 0,0 l/m 4,7 km/h (1 Bft) S-SO 157 10,6 C 11,6 C 15,6 km/h (3 Bft)
29.06.2013 17:45 11,9 C 92 % 1021,1 hPa 0,0 l/m 5,0 km/h (1 Bft) S-SW 202 10,6 C 11,6 C 4,8 km/h (1 Bft)
29.06.2013 17:50 11,9 C 92 % 1021,1 hPa 0,7 l/m 6,3 km/h (2 Bft) S 180 10,6 C 11,2 C 5,5 km/h (1 Bft)
29.06.2013 17:55 11,9 C 92 % 1021,1 hPa 0,0 l/m 6,0 km/h (2 Bft) S-SO 157 10,6 C 11,3 C 6,6 km/h (2 Bft)
29.06.2013 18:00 11,8 C 92 % 1021,1 hPa 0,0 l/m 5,6 km/h (1 Bft) S-SO 157 10,5 C 11,4 C 11,3 km/h (2 Bft)
29.06.2013 18:05 11,6 C 92 % 1021,1 hPa 0,0 l/m 6,3 km/h (2 Bft) S 180 10,3 C 11,1 C 8,2 km/h (2 Bft)
29.06.2013 18:10 11,4 C 92 % 1021,1 hPa 0,0 l/m 7,1 km/h (2 Bft) S-SO 157 10,1 C 10,2 C 5,3 km/h (1 Bft)
29.06.2013 18:15 11,2 C 92 % 1021,1 hPa 0,0 l/m 7,1 km/h (2 Bft) S-SO 157 9,9 C 10,0 C 13,7 km/h (3 Bft)
29.06.2013 18:20 11,1 C 92 % 1021,1 hPa 0,0 l/m 6,4 km/h (2 Bft) SO 135 9,8 C 10,5 C 8,4 km/h (2 Bft)
29.06.2013 18:25 11,0 C 92 % 1020,9 hPa 0,7 l/m 6,1 km/h (2 Bft) W-SW 247 9,8 C 10,4 C 3,7 km/h (1 Bft)
29.06.2013 18:30 11,0 C 93 % 1020,9 hPa 0,0 l/m 6,9 km/h (2 Bft) S-SW 202 9,9 C 9,9 C 9,2 km/h (2 Bft)
29.06.2013 18:35 11,0 C 93 % 1020,9 hPa 0,7 l/m 6,8 km/h (2 Bft) S 180 9,9 C 10,0 C 7,1 km/h (2 Bft)
29.06.2013 18:40 11,1 C 93 % 1020,9 hPa 0,0 l/m 6,6 km/h (2 Bft) S 180 10,0 C 10,3 C 18,0 km/h (3 Bft)
29.06.2013 18:45 11,2 C 93 % 1021,2 hPa 0,0 l/m 6,9 km/h (2 Bft) S-SW 202 10,1 C 10,0 C 10,5 km/h (2 Bft)
29.06.2013 18:50 11,3 C 93 % 1021,2 hPa 0,0 l/m 6,4 km/h (2 Bft) S-SW 202 10,2 C 10,6 C 7,1 km/h (2 Bft)
29.06.2013 18:55 11,2 C 93 % 1021,2 hPa 0,0 l/m 5,6 km/h (1 Bft) S 180 10,1 C 10,8 C 4,7 km/h (1 Bft)
29.06.2013 19:00 11,1 C 94 % 1021,2 hPa 0,7 l/m 4,7 km/h (1 Bft) SO 135 10,2 C 11,1 C 3,5 km/h (1 Bft)
29.06.2013 19:05 11,1 C 94 % 1021,2 hPa 0,0 l/m 4,2 km/h (1 Bft) S-SO 157 10,2 C 11,1 C 5,5 km/h (1 Bft)
29.06.2013 19:10 11,3 C 94 % 1021,2 hPa 0,0 l/m 4,2 km/h (1 Bft) S 180 10,4 C 11,2 C 5,0 km/h (1 Bft)
29.06.2013 19:15 11,5 C 94 % 1021,2 hPa 0,0 l/m 4,7 km/h (1 Bft) S-SO 157 10,6 C 11,3 C 6,4 km/h (2 Bft)
29.06.2013 19:20 11,6 C 94 % 1021,2 hPa 0,0 l/m 4,3 km/h (1 Bft) S-SO 157 10,7 C 11,5 C 5,1 km/h (1 Bft)
29.06.2013 19:25 11,5 C 94 % 1021,5 hPa 0,0 l/m 4,3 km/h (1 Bft) W-SW 247 10,6 C 11,5 C 11,3 km/h (2 Bft)
29.06.2013 19:30 11,3 C 94 % 1021,5 hPa 0,0 l/m 4,8 km/h (1 Bft) W-SW 247 10,4 C 11,2 C 10,3 km/h (2 Bft)
29.06.2013 19:35 11,2 C 94 % 1021,5 hPa 0,7 l/m 5,8 km/h (2 Bft) S 180 10,3 C 11,0 C 12,1 km/h (2 Bft)
29.06.2013 19:40 11,2 C 94 % 1021,5 hPa 0,0 l/m 6,3 km/h (2 Bft) S 180 10,3 C 10,7 C 4,8 km/h (1 Bft)
29.06.2013 19:45 11,2 C 94 % 1021,8 hPa 0,0 l/m 5,6 km/h (1 Bft) SO 135 10,3 C 10,8 C 3,1 km/h (1 Bft)
29.06.2013 19:50 11,1 C 94 % 1021,8 hPa 0,0 l/m 5,1 km/h (1 Bft) S 180 10,2 C 10,9 C 6,6 km/h (2 Bft)
29.06.2013 19:55 11,2 C 94 % 1021,8 hPa 0,0 l/m 5,3 km/h (1 Bft) SO 135 10,3 C 10,9 C 11,3 km/h (2 Bft)
29.06.2013 20:00 11,1 C 94 % 1021,8 hPa 0,0 l/m 6,1 km/h (2 Bft) W 270 10,2 C 10,7 C 9,5 km/h (2 Bft)
29.06.2013 20:05 11,1 C 94 % 1022,1 hPa 0,7 l/m 6,6 km/h (2 Bft) S-SO 157 10,2 C 10,3 C 7,6 km/h (2 Bft)
29.06.2013 20:10 11,0 C 94 % 1022,1 hPa 0,0 l/m 5,6 km/h (1 Bft) SO 135 10,1 C 10,7 C 3,2 km/h (1 Bft)
29.06.2013 20:15 11,1 C 94 % 1022,1 hPa 0,0 l/m 6,3 km/h (2 Bft) S-SO 157 10,2 C 10,6 C 9,8 km/h (2 Bft)
29.06.2013 20:20 11,1 C 94 % 1022,1 hPa 0,7 l/m 6,1 km/h (2 Bft) S 180 10,2 C 10,7 C 8,9 km/h (2 Bft)
29.06.2013 20:25 11,1 C 94 % 1022,2 hPa 0,0 l/m 5,6 km/h (1 Bft) S 180 10,2 C 10,8 C 4,3 km/h (1 Bft)
29.06.2013 20:30 11,1 C 95 % 1022,2 hPa 0,0 l/m 4,3 km/h (1 Bft) S-SW 202 10,3 C 11,1 C 2,3 km/h (1 Bft)
29.06.2013 20:35 11,1 C 95 % 1022,2 hPa 0,0 l/m 4,2 km/h (1 Bft) S 180 10,3 C 11,1 C 6,6 km/h (2 Bft)
29.06.2013 20:40 11,0 C 95 % 1022,2 hPa 0,0 l/m 4,0 km/h (1 Bft) S-SO 157 10,2 C 11,0 C 5,5 km/h (1 Bft)
29.06.2013 20:45 11,0 C 95 % 1022,2 hPa 0,0 l/m 4,3 km/h (1 Bft) S-SW 202 10,2 C 11,0 C 4,0 km/h (1 Bft)
29.06.2013 20:50 10,9 C 95 % 1022,2 hPa 0,0 l/m 5,3 km/h (1 Bft) S-SO 157 10,1 C 10,8 C 2,9 km/h (1 Bft)
29.06.2013 20:55 10,9 C 95 % 1022,2 hPa 0,7 l/m 5,0 km/h (1 Bft) S 180 10,1 C 10,8 C 6,4 km/h (2 Bft)
29.06.2013 21:00 10,8 C 95 % 1022,2 hPa 0,0 l/m 4,8 km/h (1 Bft) O-SO 112 10,0 C 10,7 C 6,0 km/h (2 Bft)
29.06.2013 21:05 10,8 C 95 % 1022,4 hPa 0,0 l/m 5,5 km/h (1 Bft) O-SO 112 10,0 C 10,5 C 7,4 km/h (2 Bft)
29.06.2013 21:10 10,6 C 95 % 1022,4 hPa 0,0 l/m 4,3 km/h (1 Bft) S-SW 202 9,8 C 10,7 C 3,5 km/h (1 Bft)
29.06.2013 21:15 10,6 C 95 % 1022,4 hPa 0,0 l/m 4,0 km/h (1 Bft) O-SO 112 9,8 C 10,6 C 2,9 km/h (1 Bft)
29.06.2013 21:20 10,5 C 95 % 1022,4 hPa 0,0 l/m 3,1 km/h (1 Bft) O 90 9,7 C 10,5 C 1,9 km/h (1 Bft)
29.06.2013 21:25 10,5 C 95 % 1022,6 hPa 0,0 l/m 2,6 km/h (1 Bft) SO 135 9,7 C 10,5 C 3,5 km/h (1 Bft)
29.06.2013 21:30 10,5 C 95 % 1022,6 hPa 0,0 l/m 2,7 km/h (1 Bft) S-SO 157 9,7 C 10,5 C 3,5 km/h (1 Bft)
29.06.2013 21:35 10,5 C 95 % 1022,6 hPa 0,0 l/m 2,9 km/h (1 Bft) SO 135 9,7 C 10,5 C 2,4 km/h (1 Bft)
29.06.2013 21:40 10,4 C 95 % 1022,6 hPa 0,0 l/m 3,1 km/h (1 Bft) S-SO 157 9,6 C 10,5 C 6,9 km/h (2 Bft)
29.06.2013 21:45 10,3 C 95 % 1022,9 hPa 0,0 l/m 3,9 km/h (1 Bft) S 180 9,5 C 10,5 C 7,4 km/h (2 Bft)
29.06.2013 21:50 10,2 C 95 % 1022,9 hPa 0,0 l/m 3,5 km/h (1 Bft) S-SW 202 9,4 C 10,3 C 3,9 km/h (1 Bft)
29.06.2013 21:55 10,1 C 95 % 1022,9 hPa 0,0 l/m 2,7 km/h (1 Bft) O 90 9,3 C 10,3 C 1,9 km/h (1 Bft)
29.06.2013 22:00 10,0 C 95 % 1022,9 hPa 0,0 l/m 1,3 km/h (1 Bft) O-NO 67 9,2 C 10,1 C 2,4 km/h (1 Bft)
29.06.2013 22:05 10,0 C 95 % 1022,9 hPa 0,0 l/m 0,8 km/h (0 Bft) O-NO 67 9,2 C 9,9 C 2,3 km/h (1 Bft)
29.06.2013 22:10 10,0 C 95 % 1022,9 hPa 0,0 l/m 0,5 km/h (0 Bft) S 180 9,2 C 9,9 C 1,6 km/h (1 Bft)
29.06.2013 22:15 10,0 C 95 % 1022,9 hPa 0,0 l/m 0,5 km/h (0 Bft) O 90 9,2 C 9,9 C 0,0 km/h (0 Bft)
29.06.2013 22:20 10,0 C 95 % 1022,9 hPa 0,0 l/m 0,3 km/h (0 Bft) NO 45 9,2 C 10,0 C 0,0 km/h (0 Bft)
29.06.2013 22:25 10,1 C 95 % 1023,3 hPa 0,0 l/m 0,5 km/h (0 Bft) NO 45 9,3 C 10,1 C 1,6 km/h (1 Bft)
29.06.2013 22:30 10,1 C 95 % 1023,3 hPa 0,0 l/m 0,6 km/h (0 Bft) S-SO 157 9,3 C 10,1 C 1,6 km/h (1 Bft)
29.06.2013 22:35 10,1 C 95 % 1023,3 hPa 0,0 l/m 1,0 km/h (0 Bft) S-SO 157 9,3 C 10,2 C 3,5 km/h (1 Bft)
29.06.2013 22:40 10,2 C 95 % 1023,3 hPa 0,0 l/m 1,1 km/h (1 Bft) N-NO 22 9,4 C 10,3 C 4,3 km/h (1 Bft)
29.06.2013 22:45 10,2 C 95 % 1023,5 hPa 0,0 l/m 1,0 km/h (0 Bft) O 90 9,4 C 10,3 C 6,0 km/h (2 Bft)
29.06.2013 22:50 10,2 C 95 % 1023,5 hPa 0,0 l/m 1,1 km/h (1 Bft) NO 45 9,4 C 10,3 C 0,0 km/h (0 Bft)
29.06.2013 22:55 10,2 C 95 % 1023,5 hPa 0,0 l/m 1,3 km/h (1 Bft) N-NW 337 9,4 C 10,3 C 0,0 km/h (0 Bft)
29.06.2013 23:00 10,3 C 95 % 1023,5 hPa 0,0 l/m 1,9 km/h (1 Bft) O 90 9,5 C 10,5 C 2,7 km/h (1 Bft)
29.06.2013 23:05 10,3 C 95 % 1023,6 hPa 0,0 l/m 2,3 km/h (1 Bft) S 180 9,5 C 10,5 C 3,1 km/h (1 Bft)
29.06.2013 23:10 10,3 C 95 % 1023,6 hPa 0,0 l/m 2,4 km/h (1 Bft) S 180 9,5 C 10,6 C 2,4 km/h (1 Bft)
29.06.2013 23:15 10,3 C 95 % 1023,6 hPa 0,0 l/m 2,3 km/h (1 Bft) S 180 9,5 C 10,6 C 0,0 km/h (0 Bft)
29.06.2013 23:20 10,3 C 95 % 1023,6 hPa 0,0 l/m 1,4 km/h (1 Bft) SO 135 9,5 C 10,7 C 3,1 km/h (1 Bft)
29.06.2013 23:25 10,3 C 95 % 1023,6 hPa 0,0 l/m 1,0 km/h (0 Bft) W-NW 292 9,5 C 10,6 C 1,8 km/h (1 Bft)
29.06.2013 23:30 10,3 C 96 % 1023,6 hPa 0,0 l/m 1,3 km/h (1 Bft) SO 135 9,7 C 10,6 C 0,0 km/h (0 Bft)
29.06.2013 23:35 10,3 C 95 % 1023,6 hPa 0,0 l/m 1,6 km/h (1 Bft) O-SO 112 9,5 C 10,6 C 1,9 km/h (1 Bft)
29.06.2013 23:40 10,3 C 96 % 1023,6 hPa 0,0 l/m 1,8 km/h (1 Bft) W 270 9,7 C 10,6 C 5,6 km/h (1 Bft)
29.06.2013 23:45 10,4 C 96 % 1024,1 hPa 0,0 l/m 2,7 km/h (1 Bft) NO 45 9,8 C 10,7 C 1,8 km/h (1 Bft)
29.06.2013 23:50 10,5 C 96 % 1024,1 hPa 0,0 l/m 2,1 km/h (1 Bft) S-SW 202 9,9 C 10,7 C 1,6 km/h (1 Bft)
29.06.2013 23:55 10,5 C 96 % 1024,1 hPa 0,0 l/m 1,0 km/h (0 Bft) S 180 9,9 C 10,8 C 3,2 km/h (1 Bft)
_ Min-Zeit 00:20 09:30 14:40 - 11:50 - - 00:20 00:15 23:30
Minimum _ 5,7 C 83 % 1020,5 hPa - 0,0 km/h (0 Bft) - - 5,1 C 5,5 C 0,0 km/h (0 Bft)
_ Max-Zeit 15:20 23:55 23:55 20:55 15:35 - - 15:20 15:20 15:30
Maximum _ 13,6 C 96 % 1024,1 hPa 0,7 l/m 8,7 km/h
S (2 Bft)
- - 11,6 C 13,6 C 19,0 km/h
S (3 Bft)
Durchschnitt _ 10,0 C 92 % 1022,0 hPa #9,6 l/m 2,4 km/h (1 Bft) S - 8,8 C 9,9 C 3,4 km/h (1 Bft)